Location: Byszew
(52.1813°N, 19.2693°E)
Time: 22:59:13
(UTC+00:00)

METEOR 1-16 DEB - Pass Details

Date: 09 December 2022
Orbit: 800 x 848 km, 81.2° (Epoch: 28 January)

Event Time Altitude Azimuth Distance (km) Brightness Sun altitude
Rises 17:59:55 0° 347° (NNW) 3,324 ? -30.7°
Reaches altitude 10° 18:02:19 10° 349° (N) 2,391 ? -31.1°
Enters shadow 18:03:36 18° 350° (N) 1,904 ? -31.3°
